Guatemala, Guatemala

6:35 PM CST on August 22, 2017 (GMT -0600)
La Aurora International

Weather History for MGGT - June, 2017

Change the Weather History Date:

Monday, June 19, 2017

  Actual Average Record
Temperature  
Mean Temperature 67 °F -  
Max Temperature 73 °F 74 °F 80 °F (2005)
Min Temperature 61 °F 60 °F 60 °F (2000)
Cooling Degree Days 2    
Growing Degree Days 17 (Base 50)    
Moisture  
Dew Point 63 °F    
Average Humidity 91    
Maximum Humidity 100    
Minimum Humidity 61    
Precipitation  
Precipitation 0.02 in - - ()
Sea Level Pressure  
Sea Level Pressure 30.11 in    
Wind  
Wind Speed 5 mph ()    
Max Wind Speed 67 mph    
Max Gust Speed -    
Visibility 4.4 miles    
Events Rain , Thunderstorm    
Averages and records for this station are not official NWS values.
T = Trace of Precipitation, MM = Missing Value Source: Averaged Metar Reports

Daily Weather History Graph

Daily Weather History Graph

Search for Another Location

Airport or City:

Trip Planner

Search our weather history database for the weather conditions in past years. The results will help you decide how hot, cold, wet, or windy it might be!

Date:

Astronomy

Jun. 19, 2017 Rise Set
Actual Time 5:33 AM CST 6:33 PM CST
Civil Twilight 5:10 AM CST 6:56 PM CST
Nautical Twilight 4:42 AM CST 7:24 PM CST
Astronomical Twilight 4:13 AM CST 7:53 PM CST
Moon 1:32 AM CST (6/19) 2:09 PM CST (6/19)
Length of Visible Light 13h 46m
Length of Day
12h 59m
Waning Crescent, 26% of the Moon is Illuminated
Jun 19
Waning Crescent
Jun 23
New
Jun 30
First Quarter
Jul 8
Full
Jul 16
Last Quarter

Hourly Weather History & Observations

Time (CST) Temp. Dew Point Humidity Pressure Visibility Wind Dir Wind Speed Gust Speed Precip Events Conditions
12:00 AM 64.4 °F 62.6 °F 94% 30.12 in 3.1 mi Calm Calm - N/A   Mostly Cloudy
1:00 AM 62.6 °F 62.6 °F 100% 30.12 in 1.2 mi Calm Calm - N/A   Mostly Cloudy
2:00 AM 62.6 °F 62.6 °F 100% 30.09 in 3.1 mi Calm Calm - N/A   Mostly Cloudy
3:00 AM 64.4 °F 62.6 °F 94% 30.09 in 3.7 mi Calm Calm - N/A   Mostly Cloudy
4:00 AM 62.6 °F 62.6 °F 100% 30.09 in 3.7 mi Calm Calm - N/A   Mostly Cloudy
5:00 AM 62.6 °F 62.6 °F 100% 30.09 in 3.7 mi Calm Calm - N/A   Mostly Cloudy
6:00 AM - - %  in 1 mi ESE 66.7 mph - -   Clear
6:00 AM 62.6 °F 62.6 °F 100% 30.12 in 5.0 mi Calm Calm - N/A   Mostly Cloudy
7:00 AM 64.4 °F 62.6 °F 94% 30.15 in 4.3 mi Calm Calm - N/A   Mostly Cloudy
8:00 AM 64.4 °F 62.6 °F 94% 30.15 in 3.1 mi South 4.6 mph - N/A   Mostly Cloudy
9:00 AM 66.2 °F 62.6 °F 88% 30.15 in 4.3 mi South 6.9 mph - N/A   Mostly Cloudy
10:00 AM 68.0 °F 62.6 °F 83% 30.15 in 6.2 mi South 6.9 mph - N/A   Mostly Cloudy
11:00 AM 71.6 °F 64.4 °F 78% 30.15 in 6.2 mi South 6.9 mph - N/A   Mostly Cloudy
12:00 PM 73 °F 62 °F 61% 29.81 in 25 mi South 6.9 mph - - Rain Light Drizzle
12:00 PM 73.4 °F 62.6 °F 69% 30.15 in 6.2 mi South 6.9 mph - N/A   Light Drizzle
1:00 PM 71.6 °F 64.4 °F 78% 30.12 in 5.0 mi South 9.2 mph - N/A   Light Drizzle
2:00 PM 69.8 °F 62.6 °F 78% 30.12 in 6.2 mi South 9.2 mph - N/A Thunderstorm Thunderstorm
3:00 PM 68.0 °F 64.4 °F 88% 30.09 in 6.2 mi South 9.2 mph - N/A Rain Rain
4:00 PM 66.2 °F 64.4 °F 94% 30.06 in 5.0 mi SSW 9.2 mph - N/A   Light Drizzle
5:00 PM 66.2 °F 64.4 °F 94% 30.09 in 5.0 mi South 6.9 mph - N/A   Mostly Cloudy
6:00 PM 65 °F 64 °F 97% 29.83 in 5 mi South 6.9 mph - - Rain Light Drizzle
6:00 PM 66.2 °F 64.4 °F 94% 30.12 in 5.0 mi South 6.9 mph - N/A   Light Drizzle
7:00 PM 64.4 °F 64.4 °F 100% 30.15 in 4.3 mi South 6.9 mph - N/A   Light Drizzle
8:00 PM 64.4 °F 64.4 °F 100% 30.15 in 4.3 mi South 6.9 mph - N/A   Drizzle
9:00 PM 64.4 °F 64.4 °F 100% 30.18 in 4.3 mi Calm Calm - N/A   Scattered Clouds
10:00 PM 64.4 °F 64.4 °F 100% 30.21 in 5.0 mi Calm Calm - N/A   Light Drizzle
11:00 PM 64.4 °F 64.4 °F 100% 30.21 in 4.3 mi North 6.9 mph - N/A Rain Light Rain